TimeCST,TemperatureF,Dew PointF,Humidity,Sea Level PressureIn,VisibilityMPH,Wind Direction,Wind SpeedMPH,Gust SpeedMPH,PrecipitationIn,Events,Conditions,WindDirDegrees,DateUTC
3:53 AM,60.1,55.9,86,29.90,10.0,South,12.7,-,N/A,,Partly Cloudy,170,2013-03-05 09:53:00
4:53 AM,60.1,57.0,90,29.92,10.0,South,10.4,-,N/A,,Overcast,190,2013-03-05 10:53:00
6:46 AM,60.8,57.2,88,29.98,10.0,SSW,5.8,-,N/A,,Overcast,210,2013-03-05 12:46:00
7:53 AM,62.1,57.9,86,29.98,10.0,SW,5.8,-,N/A,,Overcast,220,2013-03-05 13:53:00
8:53 AM,64.0,59.0,84,29.98,10.0,SW,11.5,-,N/A,,Overcast,220,2013-03-05 14:53:00
8:55 AM,64.4,59.0,83,29.98,10.0,SSW,9.2,-,N/A,,Overcast,200,2013-03-05 14:55:00
9:07 AM,64.4,59.0,83,29.98,10.0,SW,11.5,20.7,N/A,,Overcast,220,2013-03-05 15:07:00
9:53 AM,66.0,60.1,81,29.98,10.0,WSW,10.4,-,N/A,,Overcast,240,2013-03-05 15:53:00
10:53 AM,68.0,60.1,76,29.99,10.0,West,13.8,-,N/A,,Overcast,260,2013-03-05 16:53:00
11:25 AM,68.0,59.0,73,30.00,10.0,West,8.1,-,N/A,,Overcast,260,2013-03-05 17:25:00
11:53 AM,70.0,59.0,68,29.99,10.0,West,15.0,20.7,N/A,,Mostly Cloudy,260,2013-03-05 17:53:00
12:53 PM,68.0,52.0,56,30.00,10.0,WNW,18.4,24.2,0.01,,Partly Cloudy,290,2013-03-05 18:53:00
1:53 PM,70.0,48.0,46,30.00,10.0,NW,13.8,25.3,N/A,,Clear,310,2013-03-05 19:53:00
2:53 PM,69.1,45.0,42,30.02,10.0,NNW,18.4,25.3,N/A,,Clear,340,2013-03-05 20:53:00
3:53 PM,66.9,35.1,31,30.04,10.0,NW,15.0,26.5,N/A,,Clear,320,2013-03-05 21:53:00
4:53 PM,64.9,35.1,33,30.05,10.0,NNW,13.8,-,N/A,,Clear,340,2013-03-05 22:53:00
5:53 PM,60.1,34.0,38,30.09,10.0,NNW,10.4,-,N/A,,Clear,330,2013-03-05 23:53:00
6:53 PM,55.0,35.1,47,30.11,10.0,NNW,6.9,-,N/A,,Clear,340,2013-03-06 00:53:00
7:53 PM,52.0,36.0,54,30.13,10.0,NNW,4.6,-,N/A,,Clear,340,2013-03-06 01:53:00
8:53 PM,51.1,35.1,54,30.15,10.0,NNW,8.1,-,N/A,,Clear,340,2013-03-06 02:53:00
9:53 PM,48.9,34.0,56,30.17,10.0,NNW,4.6,-,N/A,,Clear,330,2013-03-06 03:53:00
10:53 PM,48.0,34.0,58,30.19,10.0,NNW,9.2,-,N/A,,Clear,340,2013-03-06 04:53:00
11:53 PM,46.9,28.0,48,30.21,10.0,NNW,10.4,-,N/A,,Clear,330,2013-03-06 05:53:00